Volver al catálogo

CZ-6A DEB

ActivoPO
NORAD 61401·DEBRIS·🇨🇳 China

Lanzado Aug 6, 2024 desde Taiyuan Satellite Launch Center

Loading…

Próximos Pases (próximas 24 horas)

TLE

ActualizadoSource: Space-Track

Época: Sep 14, 2026, 06:52 UTC

1 61401U 24140XS  26257.28645800  .00002459  00000-0  10161-2 0  9999
2 61401  88.9960 264.1973 0046079 256.9660 102.6387 14.25894356104511

Sigue CZ-6A DEB en tiempo real con AllMySat

Download on the App Store